Location: ???????
(55.4362°N, 38.1183°E)
Time: 17:13:32
(UTC+00:00)

Cosmos 2333 Rocket - Pass Details

Date: 23 October 2021
Orbit: 837 x 865 km, 70.8° (Epoch: 04 December)

Event Time Altitude Azimuth Distance (km) Brightness Sun altitude
Exits shadow 00:12:23 17° 344° (NNW) 2,040 4.3 -33.7°
Maximum altitude 00:15:45 29° 32° (NNE) 1,542 4.0 -33.3°
Drops below altitude 10° 00:20:43 10° 91° (E) 2,507 5.3 -32.7°
Sets 00:23:31 0° 103° (ESE) 3,444 6.0 -32.4°
